Regional Weather Roundup
Issued by NWS Sioux Falls, SD

Home | Current Version | Previous Version | Text Only | Print | Product List | Glossary On
Versions: 1 2 3 4 5 6 7 8 9 10 11 12 13 14 15 16 17 18 19 20 21 22 23 24 25 26 27 28 29 30 31 32 33 34 35 36 37 38 39 40 41 42 43 44 45 46 47 48 49 50
000
ASUS43 KFSD 290210
RWRFSD

WEATHER ROUNDUP FOR SE SOUTH DAKOTA/SW MINNESOTA/NW IOWA
NATIONAL WEATHER SERVICE SIOUX FALLS SD
900 PM CDT FRI APR 28 2017

NOTE: "FAIR" INDICATES FEW OR NO CLOUDS BELOW 12,000 FEET WITH NO
SIGNIFICANT WEATHER AND OR OBSTRUCTIONS TO VISIBILITY.


SDZ038>040-050-052>070-290300-
SOUTHEAST SOUTH DAKOTA

CITY           SKY/WX    TMP DP  RH WIND       PRES   REMARKS
BROOKINGS      CLEAR     43  24  47 NE8       30.07R
CHAMBERLAIN    CLOUDY    47  22  37 N7        30.10R
HURON          PTCLDY    42  21  43 NE7       30.10R
MADISON        FAIR      41  25  52 NE7       30.08R
MITCHELL       PTCLDY    43  25  49 NE8       30.10R
SIOUX FALLS    PTCLDY    41  31  67 NE7       30.07R
WINNER         FAIR      47  27  45 NE10      30.08R
YANKTON        CLOUDY    46  28  49 N10       30.04S
$$

MNZ071-072-080-081-089-090-097-098-290300-
SOUTHWEST MINNESOTA

CITY           SKY/WX    TMP DP  RH WIND       PRES   REMARKS
FAIRMONT       CLEAR     43  33  68 N7        30.05R
JACKSON        CLEAR     37  32  81 CALM      30.05R
LUVERNE        CLEAR     43  28  56 NE5       30.07R
MARSHALL       PTCLDY    43  22  43 N8        30.07R
MONTEVIDEO     PTCLDY    43  25  49 NE8       30.08R
PIPESTONE      CLEAR     43  21  42 NE5       30.06R
REDWOOD FALLS  PTCLDY    47  26  44 N7        30.04R
TRACY          CLEAR     41  30  64 N8        30.05R
WINDOM         CLEAR     43  28  56 N5        30.06R
WORTHINGTON    CLEAR     41  29  62 N8        30.06R
$$

IAZ001>003-012>014-020>022-031-032-NEZ013-014-SDZ071-290300-
NORTHWEST IOWA

CITY           SKY/WX    TMP DP  RH WIND       PRES   REMARKS
CHEROKEE       CLOUDY    44  35  69 NE8       30.02R
DENISON        CLOUDY    43  37  81 NE12G17   29.99R
ESTHERVILLE    PTCLDY    40  34  79 N8        30.03R
LE MARS        CLOUDY    45  32  61 N7        30.03R
ORANGE CITY    PTCLDY    45  34  65 N9G16     30.03R
SHELDON        CLOUDY    45  34  65 N8        30.02R
SIOUX CITY     CLOUDY    45  35  68 NE8       30.01R
SPENCER        PTCLDY    40  33  76 NE8       30.02R
$$

ABBREVIATIONS USED IN REMARKS
   TC - TEMPERATURE IN CELSIUS
  WCI - WIND CHILL INDEX
   HX - HEAT INDEX
  VSB - VISIBILITY




USA.gov is the U.S. government's official web portal to all federal, state and local government web resources and services.